York, NE

7:40 AM CST on December 08, 2019 (GMT -0600)
York Municipal

Weather History for KJYR - October, 2019

Change the Weather History Date:

Tuesday, October 15, 2019

  Actual Average Record
Temperature  
Mean Temperature 49 °F -  
Max Temperature 57 °F 65 °F 89 °F (1958)
Min Temperature 41 °F 40 °F 24 °F (2018)
Degree Days  
Heating Degree Days 16    
Moisture  
Dew Point 35 °F    
Average Humidity 61    
Maximum Humidity 94    
Minimum Humidity 36    
Precipitation  
Precipitation 0.00 in - - ()
Sea Level Pressure  
Sea Level Pressure 30.05 in    
Wind  
Wind Speed 12 mph (NNW)    
Max Wind Speed 28 mph    
Max Gust Speed 37 mph    
Visibility 10 miles    
Events      
Averages and records for this station are not official NWS values.
T = Trace of Precipitation, MM = Missing Value Source: NWS Daily Summary

Daily Weather History Graph

Daily Weather History Graph

Search for Another Location

Airport or City:

Astronomy

Oct. 15, 2019 Rise Set
Actual Time 7:41 AM CDT 6:50 PM CDT
Civil Twilight 7:13 AM CDT 7:17 PM CDT
Nautical Twilight 6:42 AM CDT 7:49 PM CDT
Astronomical Twilight 6:10 AM CDT 8:21 PM CDT
Moon 8:10 PM CDT (10/15) 9:13 AM CDT (10/15)
Length of Visible Light 12h 03m
Length of Day
11h 08m
Full, 97% of the Moon is Illuminated
Oct 15
Full
Oct 21
Last Quarter
Oct 27
New
Nov 4
First Quarter
Nov 12
Full

Hourly Weather History & Observations

Time (CDT) Temp. Windchill Dew Point Humidity Pressure Visibility Wind Dir Wind Speed Gust Speed Precip Events Conditions
12:15 AM 53.6 °F - 50.0 °F 88% 29.78 in 10.0 mi South 9.2 mph - N/A   Clear
12:35 AM 53.6 °F - 48.2 °F 82% 29.79 in 10.0 mi SSW 5.8 mph - N/A   Clear
12:55 AM 50.0 °F - 48.2 °F 94% 29.79 in 10.0 mi SW 5.8 mph - N/A   Clear
1:15 AM 50.0 °F - 48.2 °F 94% 29.82 in 10.0 mi WNW 8.1 mph 23.0 mph N/A   Clear
1:35 AM 50.0 °F - 48.2 °F 94% 29.81 in 10.0 mi West 3.5 mph - N/A   Clear
1:55 AM 48.2 °F - 46.4 °F 93% 29.83 in 10.0 mi WNW 8.1 mph - N/A   Clear
2:15 AM 51.8 °F - 46.4 °F 82% 29.84 in 10.0 mi NNW 12.7 mph 18.4 mph N/A   Clear
2:35 AM 50.0 °F - 44.6 °F 82% 29.85 in 10.0 mi NW 10.4 mph - N/A   Clear
2:55 AM 50.0 °F - 41.0 °F 71% 29.87 in 10.0 mi NNW 10.4 mph 19.6 mph N/A   Clear
3:15 AM 50.0 °F - 41.0 °F 71% 29.88 in 10.0 mi NNW 13.8 mph 17.3 mph N/A   Clear
3:35 AM 48.2 °F - 39.2 °F 71% 29.89 in 10.0 mi NNW 9.2 mph - N/A   Clear
3:55 AM 48.2 °F - 39.2 °F 71% 29.90 in 10.0 mi NNW 10.4 mph 17.3 mph N/A   Clear
4:15 AM 46.4 °F 41.5 °F 39.2 °F 76% 29.90 in 10.0 mi NNW 10.4 mph - N/A   Clear
4:35 AM 46.4 °F 42.4 °F 39.2 °F 76% 29.91 in 10.0 mi NNW 8.1 mph - N/A   Clear
4:55 AM 46.4 °F 41.5 °F 39.2 °F 76% 29.92 in 10.0 mi NNW 10.4 mph 16.1 mph N/A   Clear
5:15 AM 46.4 °F 41.9 °F 39.2 °F 76% 29.94 in 10.0 mi NNW 9.2 mph - N/A   Clear
5:35 AM 46.4 °F 41.1 °F 39.2 °F 76% 29.95 in 10.0 mi NNW 11.5 mph 17.3 mph N/A   Clear
5:55 AM 46.4 °F 41.5 °F 37.4 °F 71% 29.97 in 10.0 mi NNW 10.4 mph 17.3 mph N/A   Clear
6:15 AM 46.4 °F 40.7 °F 37.4 °F 71% 29.98 in 10.0 mi NNW 12.7 mph 20.7 mph N/A   Clear
6:35 AM 46.4 °F 41.1 °F 37.4 °F 71% 29.99 in 10.0 mi NNW 11.5 mph 17.3 mph N/A   Clear
6:55 AM 44.6 °F 39.2 °F 37.4 °F 76% 30.00 in 10.0 mi NNW 10.4 mph - N/A   Clear
7:15 AM 42.8 °F 38.0 °F 37.4 °F 81% 30.01 in 10.0 mi NW 8.1 mph - N/A   Clear
7:35 AM 42.8 °F 37.0 °F 37.4 °F 81% 30.01 in 10.0 mi NW 10.4 mph 16.1 mph N/A   Clear
7:55 AM 44.6 °F 38.1 °F 37.4 °F 76% 30.02 in 10.0 mi NW 13.8 mph - N/A   Clear
8:15 AM 44.6 °F 38.4 °F 37.4 °F 76% 30.04 in 10.0 mi NNW 12.7 mph 18.4 mph N/A   Clear
8:35 AM 44.6 °F 37.8 °F 37.4 °F 76% 30.05 in 10.0 mi NNW 15.0 mph 23.0 mph N/A   Clear
8:55 AM 46.4 °F 39.2 °F 35.6 °F 66% 30.05 in 10.0 mi NNW 18.4 mph 32.2 mph N/A   Clear
9:15 AM 46.4 °F 39.8 °F 35.6 °F 66% 30.06 in 10.0 mi NNW 16.1 mph 25.3 mph N/A   Clear
9:35 AM 48.2 °F - 33.8 °F 58% 30.07 in 10.0 mi NNW 17.3 mph 26.5 mph N/A   Clear
10:15 AM 50.0 °F - 32.0 °F 50% 30.09 in 10.0 mi North - - N/A   Clear
10:35 AM 50.0 °F - 32.0 °F 50% 30.09 in 10.0 mi North 18.4 mph 24.2 mph N/A   Clear
10:55 AM 51.8 °F - 30.2 °F 44% 30.09 in 10.0 mi North 18.4 mph 29.9 mph N/A   Clear
11:10 AM 51.8 °F - 32.0 °F 47% 30.09 in 10.0 mi North 19.6 mph 32.2 mph N/A   Clear
11:55 AM 53.6 °F - 32.0 °F 44% 30.10 in 10.0 mi North 15.0 mph 29.9 mph N/A   Clear
12:15 PM 53.6 °F - 33.8 °F 47% 30.10 in 10.0 mi NNW 21.9 mph 31.1 mph N/A   Clear
12:35 PM 55.4 °F - 32.0 °F 41% 30.10 in 10.0 mi North 17.3 mph 26.5 mph N/A   Clear
12:55 PM 55.4 °F - 32.0 °F 41% 30.10 in 10.0 mi North 15.0 mph 24.2 mph N/A   Clear
1:15 PM 55.4 °F - 32.0 °F 41% 30.10 in 10.0 mi NW 21.9 mph 32.2 mph N/A   Clear
1:35 PM 55.4 °F - 32.0 °F 41% 30.09 in 10.0 mi NNW 21.9 mph 32.2 mph N/A   Clear
1:55 PM 55.4 °F - 32.0 °F 41% 30.09 in 10.0 mi NNW 21.9 mph 31.1 mph N/A   Clear
2:15 PM 57.2 °F - 30.2 °F 36% 30.08 in 10.0 mi NNW 27.6 mph 36.8 mph N/A   Clear
2:35 PM 55.4 °F - 30.2 °F 38% 30.09 in 10.0 mi NNW 18.4 mph 27.6 mph N/A   Clear
2:55 PM 55.4 °F - 28.4 °F 36% 30.08 in 10.0 mi NNW 19.6 mph 29.9 mph N/A   Clear
3:15 PM 55.4 °F - 30.2 °F 38% 30.08 in 10.0 mi North 18.4 mph 28.8 mph N/A   Clear
3:35 PM 55.4 °F - 30.2 °F 38% 30.08 in 10.0 mi NNW 18.4 mph 28.8 mph N/A   Clear
3:55 PM 55.4 °F - 28.4 °F 36% 30.09 in 10.0 mi NNW 18.4 mph 28.8 mph N/A   Clear
4:15 PM 55.4 °F - 28.4 °F 36% 30.09 in 10.0 mi NNW 16.1 mph 31.1 mph N/A   Clear
4:35 PM 55.4 °F - 30.2 °F 38% 30.10 in 10.0 mi North 16.1 mph 26.5 mph N/A   Clear
4:55 PM 53.6 °F - 28.4 °F 38% 30.10 in 10.0 mi North 16.1 mph 29.9 mph N/A   Clear
5:15 PM 53.6 °F - 30.2 °F 41% 30.11 in 10.0 mi North 16.1 mph 25.3 mph N/A   Clear
5:35 PM 53.6 °F - 28.4 °F 38% 30.12 in 10.0 mi North 15.0 mph 25.3 mph N/A   Clear
6:15 PM 50.0 °F - 30.2 °F 47% 30.14 in 10.0 mi North 15.0 mph 27.6 mph N/A   Clear
6:35 PM 48.2 °F - 32.0 °F 54% 30.16 in 10.0 mi North 15.0 mph 24.2 mph N/A   Clear
6:55 PM 48.2 °F - 32.0 °F 54% 30.16 in 10.0 mi North 12.7 mph 19.6 mph N/A   Clear
7:15 PM 46.4 °F 41.1 °F 32.0 °F 57% 30.16 in 10.0 mi North 11.5 mph 16.1 mph N/A   Clear
7:35 PM 46.4 °F 40.7 °F 32.0 °F 57% 30.17 in 10.0 mi NNW 12.7 mph 18.4 mph N/A   Clear
7:55 PM 46.4 °F 40.4 °F 32.0 °F 57% 30.18 in 10.0 mi NNW 13.8 mph 21.9 mph N/A   Mostly Cloudy
8:15 PM 48.2 °F - 32.0 °F 54% 30.19 in 10.0 mi NNW 16.1 mph 24.2 mph N/A   Overcast
8:35 PM 48.2 °F - 32.0 °F 54% 30.19 in 10.0 mi NNW 13.8 mph 20.7 mph N/A   Overcast
8:55 PM 46.4 °F 42.4 °F 32.0 °F 57% 30.20 in 10.0 mi NNW 8.1 mph 18.4 mph N/A   Overcast
9:15 PM 46.4 °F 41.1 °F 32.0 °F 57% 30.20 in 10.0 mi NNW 11.5 mph - N/A   Overcast
9:35 PM 46.4 °F 41.9 °F 32.0 °F 57% 30.21 in 10.0 mi NNW 9.2 mph 17.3 mph N/A   Overcast
9:55 PM 46.4 °F 40.7 °F 32.0 °F 57% 30.21 in 10.0 mi North 12.7 mph 19.6 mph N/A   Overcast
10:15 PM 44.6 °F 40.2 °F 32.0 °F 61% 30.22 in 10.0 mi NNW 8.1 mph - N/A   Overcast
10:35 PM 44.6 °F 40.2 °F 32.0 °F 61% 30.22 in 10.0 mi NNW 8.1 mph - N/A   Overcast
11:15 PM 41.0 °F 37.1 °F 32.0 °F 70% 30.23 in 10.0 mi NNW 5.8 mph - N/A   Clear
11:35 PM 41.0 °F 35.8 °F 32.0 °F 70% 30.23 in 10.0 mi NNW 8.1 mph - N/A   Clear
11:55 PM 41.0 °F 36.4 °F 33.8 °F 76% 30.24 in 10.0 mi North 6.9 mph - N/A   Clear